User: anonymous   Login
Location: Lake Almanor
(40.2485°N, 121.1442°W)
Time: 14:09:58
(UTC-07:00)
Language:

STARLINK-1066 - Orbit

View from above orbital plane
View from above orbital plane
View from above satellite
View from above satellite

Ground track
Ground track

The orbit data is extracted from the following two-line orbital elements,

1 44954U 20001AS  20088.58336806  .00091078  00000-0  98806-3 0  9995
2 44954  52.9999 352.5144 0008604 289.2642 109.5216 15.62746839 12778
Epoch (UTC): 28 March 2020 14:00:03
Eccentricity: 0.0008604
inclination: 52.9999°
perigee height: 374 km
apogee height: 385 km
right ascension of ascending node: 352.5144°
argument of perigee: 289.2642°
revolutions per day: 15.62746839
mean anomaly at epoch: 109.5216°
orbit number at epoch: 1277

The dashed part of the orbit path shows where the satellite is in the earth's shadow,  

DLR